{"data":{"norad_id":69347,"epoch":"2026-09-20T01:20:19.620096Z","epoch_age_seconds":67340,"freshness":"FRESH","line1":"1 69347U 26122U   26263.05578264  .00016500  00000+0  51213-3 0  9994","line2":"2 69347  97.2841 291.7166 0000102 217.1278 142.9958 15.33455214 16733","mean_motion":15.33455214,"eccentricity":1.02e-5,"inclination_deg":97.2841,"raan_deg":291.7166,"arg_perigee_deg":217.1278,"mean_anomaly_deg":142.9958,"bstar":0.00051213,"rev_number":1673,"period_min":93.905579168744,"perigee_km":465.44297974117,"apogee_km":465.58259019678,"semimajor_km":6843.649784969,"source":"CELESTRAK","updated_at":"2026-09-20T09:00:44.162772Z"}}